Погода в Лебяжьем

Россия / Ульяновская область     54°07′10″N   49°36′13″E
темп.,
°C
ветер,
м/с
пор.,
м/с
влажн.,
%
обл.,
%
осадки,
мм/ч
давл.,
гПа
погр.,
м
23 июня, ср
ср2301:00+21зсз11740 0.0 102011
04:00+20зсз22771 0.0 102013
07:00+22зсз23810 0.0 1020118
10:00+27сз34640 0.0 1020547
13:00+28зсз44550 0.0 10201135
16:00+29зсз34500 0.0 10191010
19:00+27зсз356617 0.0 1018121
22:00+20ссз11742 0.3 102018
24 июня, чт
чт2401:00+19зсз227510 0.0 101912
04:00+17ссз118046 0.0 101912
07:00+21сз227740 0.0 101996
10:00+26ссз33655 0.0 1019492
13:00+28з33585 0.0 1019861
16:00+28з345851 0.6 1018570
19:00+28ссз13679 0.0 1017250
22:00+22зюз33837 0.3 101736
25 июня, пт
пт2501:00+20зсз229220 0.4 101717
04:00+19ссз2394100 2.1 101767
07:00+21с488786 0.1 1017240
10:00+22зсз4575100 0.1 1016205
13:00+24сз247180 0.1 1016272
16:00+27зсз456991 1.5 1015599
19:00+27зсз357590 0.2 1014118
22:00+23сз33835 0.2 101428
26 июня, сб
сб2601:00+22сз238813 0.3 101423
04:00+18ссз338562 0.4 101444
07:00+21сз368227 0.0 1014167
10:00+26сз346659 0.0 1014375
13:00+29сз565744 0.0 1013707
16:00+29сз46555 0.0 1013920
19:00+28сз35690 0.0 1012144
22:00+24ссз2277100 0.0 101315
27 июня, вс
вс2701:00+22сз3380100 0.0 101235
04:00+20ссз228840 0.2 101315
07:00+21сз357976 0.1 1014159
10:00+26ссз35675 0.1 1013485
13:00+29ссз455537 0.0 10131135
16:00+30ссз455234 0.0 10131333
19:00+27св35655 0.0 1013174
22:00+23св34765 0.0 101450